sat.trackr.live / text

‹ back to catalog

MEASAT-3A

NORAD 35362 · 2009-032A

PAYLOAD ACTIVE UNKNOWN

§ Identity

Operator
Country
MALA
Launch date
2009-06-21
Launch site
TYMSC
Launch vehicle
Mass (kg)
RCS (m²)
31.62

Purposes: comms

External: N2YO · Heavens-Above · Gunter

§ Orbital elements

Epoch: 2026-09-15T20:27:51.480288Z

Period
1,436.10 min
Inclination
0.0105°
Eccentricity
0.0001896
Mean motion
1.00271610 rev/d
Perigee alt
35,778.6 km
Apogee alt
35,794.6 km
Semi-major
42,164.8 km
B*
0.0000e+0
RAAN
289.5192°
Arg perigee
252.1477°
Mean anomaly
280.1184°
Rev number
894

§ Raw data

MEASAT-3A1 35362U 09032A   26258.85267917 -.00000116  00000+0  00000+0 0  99982 35362   0.0105 289.5192 0001896 252.1477 280.1184  1.00271610  8948

JSON: /api/v1/satellites/35362 · /tle

For live sub-satellite position, see the globe view (requires WebGL).

§ Visibility from observer

Set your observer location to see the next 7 days of passes ≥ 10°. The values pass through the URL so the page stays shareable.

No JS? Fill the form by hand. The geolocation button needs JavaScript.